Location: Gidding
(52.4333°N, 0.3500°W)
Time: 21:07:06
(UTC+00:00)

Daily predictions for brighter satellites

Satellite Brightness Start Highest point End
(mag) Time Altitude Azimuth Time Altitude Azimuth Time Altitude Azimuth
H-2A R/B 4.4 16:23:22 10° N 16:26:16 21° WNW 16:29:06 10° WSW
Cosmos 2219 4.3 16:22:21 10° NNW 16:26:57 24° NE 16:31:32 10° E
Thor Agena Rocket 3.8 16:23:36 10° SE 16:28:34 47° ENE 16:33:28 10° N
CENTAUR R/B 2.8 16:22:47 10° SW 16:28:38 75° NW 16:36:08 10° NE
USA 290 2.2 16:28:28 10° NNW 16:31:43 60° ENE 16:34:56 10° SE
SL-16 R/B 2.8 16:26:54 10° NNE 16:33:01 53° E 16:39:03 10° S
Cosmos 1484 Rocket 2.5 16:29:34 10° SSE 16:33:01 61° ENE 16:36:29 10° N
Cosmos 1544 Rocket 4.0 16:29:14 10° SSE 16:33:24 43° E 16:37:37 10° NNE
Cosmos 1844 Rocket 4.4 16:30:22 10° NNW 16:33:34 15° NNE 16:36:46 10° NE
Lacrosse 5 rocket 1.2 16:30:11 10° WSW 16:33:55 64° NNW 16:37:34 10° ENE
Cosmos 1980 Rocket 4.1 16:34:48 10° ESE 16:35:40 10° E 16:36:31 10° E
Iridium 51 3.6 16:35:41 10° S 16:38:50 75° E 16:42:03 10° N
BREEZE M DEB (TANK) 4.4 16:38:21 10° S 16:39:08 11° SSE 16:39:52 10° SE
Lacrosse 4 Rocket 2.3 16:35:24 10° WSW 16:39:16 41° NW 16:43:05 10° NNE
Meteor 1-27 4.4 16:35:56 10° SSW 16:41:45 89° WNW 16:47:32 10° NNE
Cosmos 2263 Rocket 2.8 16:37:10 10° NNW 16:42:20 34° NE 16:47:29 10° ESE
CORIOLIS 4.3 16:37:35 10° SE 16:42:45 54° ENE 16:47:57 10° N
Cosmos 2228 3.0 16:39:55 10° S 16:44:09 90° W 16:48:26 10° N
CZ-2D R/B 3.7 16:46:39 10° SE 16:49:20 26° ENE 16:52:03 10° N
Okean 1-7 Rocket 3.9 16:45:45 10° N 16:49:56 41° ENE 16:54:04 10° SE
Cosmos 1455 Rocket 4.2 16:47:16 10° SW 16:51:25 44° WNW 16:55:38 10° N
Cosmos 1602 Rocket 3.6 16:47:35 10° N 16:51:57 59° ENE 16:56:14 10° SSE
Cosmos 1461 3.5 16:52:02 10° S 16:55:35 34° ESE 16:58:30 14° ENE
Cosmos 1943 Rocket 4.2 16:55:07 10° NNW 16:57:06 12° N 16:59:04 10° N
Cosmos 1933 4.2 16:55:03 10° SSE 16:58:17 26° E 17:01:21 11° NNE
Cosmos 2227 Rocket 2.2 16:53:27 10° NNW 16:59:04 61° NE 17:04:39 10° SE
USA 215 3.5 16:53:50 11° ENE 17:00:04 63° N 17:06:32 10° W
Cosmos 1634 Rocket 4.2 16:54:27 10° SSW 17:00:38 75° WNW 17:06:50 10° N
IRS-1C 4.2 16:55:34 10° SE 17:00:44 55° ENE 17:05:57 10° N
IRIDIUM 103 4.4 16:56:00 10° N 17:01:10 57° E 17:06:19 10° SSE
YAOGAN 1 3.8 16:58:39 10° ESE 17:01:39 19° ENE 17:04:39 10° NNE
Cosmos 1743 2.2 16:59:17 10° N 17:02:33 89° SSW 17:05:47 10° S
NOSS 7 (H) 3.9 16:59:48 10° NW 17:02:44 88° NE 17:05:49 10° SE
Cosmos 2369 Rocket 3.9 16:59:19 10° W 17:03:57 25° NW 17:08:37 10° NNE
Cosmos 1486 Rocket 4.0 16:58:56 10° SSW 17:04:06 68° ESE 17:09:21 10° NNE
SJ-12 4.0 17:01:51 10° SE 17:05:27 44° ENE 17:09:05 10° N
Cosmos 2151 2.8 17:01:54 10° N 17:06:05 77° E 17:10:14 10° SSE
Cosmos 2360 4.2 17:02:31 10° SSW 17:08:12 70° ESE 17:13:47 11° NE
Cosmos 1655 Rocket 4.3 17:05:48 10° N 17:11:46 44° ENE 17:17:41 10° SE
Cosmos 2279 Rocket 4.1 17:05:59 10° S 17:12:13 86° W 17:18:30 10° N
Cosmos 1867 3.7 17:08:28 10° NW 17:13:57 79° SW 17:19:22 10° SE
IGS 5A 3.9 17:10:34 10° S 17:14:29 61° W 17:18:27 10° NNW
Cosmos 1697 Rocket 3.1 17:09:51 10° S 17:15:04 41° ESE 17:19:15 15° NE
Cosmos 1953 Rocket 4.2 17:11:35 10° N 17:15:40 34° ENE 17:19:44 10° SE
Cosmos 2278 Rocket 4.3 17:14:42 10° NNW 17:16:46 12° N 17:18:50 10° NNE
MOS 1 Rocket 3.5 17:13:25 10° SSE 17:18:16 57° ENE 17:23:24 10° N
SAR-Lupe-4 3.4 17:15:19 10° SSE 17:18:50 65° ENE 17:22:22 10° N
IRIDIUM 106 4.3 17:14:18 10° N 17:19:33 79° E 17:24:46 10° S
NOSS 2-2 (D) 3.0 17:20:21 10° WSW 17:23:29 57° NW 17:25:11 22° NNE
Cosmos 1782 3.2 17:20:37 10° SSW 17:24:09 57° WNW 17:27:42 10° N
Cosmos 1825 Rocket 3.4 17:20:48 10° N 17:25:08 64° ENE 17:29:25 10° SSE
ARIANE 5 R/B 2.5 17:20:33 10° SSE 17:25:38 84° ENE 17:30:49 10° NNW
Resurs 01 Rocket 3.7 17:29:46 12° NNE 17:29:46 12° NNE 17:30:15 10° NNE
SAR-Lupe-1 3.9 17:26:06 10° SSE 17:29:42 76° ENE 17:33:20 10° NNW
Cosmos 2098 Rocket 3.6 17:28:05 10° SSW 17:32:22 67° WNW 17:37:27 10° N
USA 81 4.4 17:27:51 10° N 17:32:48 39° ENE 17:37:44 10° SE
Cosmos 1656 4.0 17:27:45 10° SW 17:33:21 66° NW 17:38:38 12° NNE
UNK 3.6 17:29:20 10° NNE 17:33:57 84° ESE 17:38:31 10° SSW
CZ-2D R/B 3.8 17:33:01 10° SE 17:36:57 41° ENE 17:40:50 10° N
NOSS 3-2 (A) 3.6 17:32:34 10° WSW 17:37:47 62° NW 17:42:25 19° NE
Gbstr 26 Del rocket 3.7 17:34:38 10° SW 17:38:16 32° SSE 17:39:37 25° ESE
NOSS 3-2 (C) 3.1 17:34:07 10° SW 17:39:14 76° SE 17:43:15 22° NE
SPOT 1/Viking Rocket 3.5 17:37:33 10° SSE 17:42:40 61° ENE 17:47:48 10° N
Cosmos 1076 Rocket 3.4 17:38:55 10° N 17:43:13 64° ENE 17:47:29 10° SSE
NOSS 2-2 (E) 3.4 17:40:54 10° WSW 17:43:57 46° NW 17:45:00 31° NNE
PSLV R/B 3.9 17:43:07 26° ESE 17:44:37 35° ENE 17:48:21 10° N
SMAP 3.9 17:40:11 10° S 17:44:44 54° W 17:49:20 10° NNW
[s.n.66845] 3.2 17:42:27 10° NNW 17:43:44 22° N 17:43:44 22° N
[s.n.66847] 3.2 17:42:54 10° NNW 17:44:11 22° N 17:44:11 22° N
Cosmos 2266 Rocket 4.3 17:39:37 10° NNW 17:45:44 68° W 17:51:44 10° S
[s.n.66846] 3.3 17:43:19 10° NNW 17:44:36 22° N 17:44:36 22° N
Cosmos 2082 3.9 17:40:45 10° NNW 17:46:18 49° NE 17:50:41 16° ESE
CZ-4C R/B 3.7 17:39:38 10° NW 17:46:22 55° SW 17:54:38 10° SSE
[s.n.66843] 3.2 17:43:51 10° NNW 17:45:08 22° N 17:45:08 22° N
[s.n.66844] 3.3 17:44:18 10° NNW 17:45:35 22° N 17:45:35 22° N
Meteor 1-28 Rocket 4.3 17:43:54 10° N 17:47:01 37° WNW 17:50:07 10° SW
[s.n.66842] 3.3 17:44:50 10° NNW 17:46:06 22° N 17:46:06 22° N
[s.n.66841] 3.3 17:45:18 10° NNW 17:46:33 22° N 17:46:33 22° N
COSMO-SKYMED 1 3.8 17:49:12 23° ESE 17:49:12 23° ESE 17:51:28 10° SSE
SL-19 R/B 4.4 17:43:12 10° SE 17:48:24 49° ENE 17:53:55 10° N
[s.n.66840] 3.3 17:45:48 10° NNW 17:47:03 22° N 17:47:03 22° N
[s.n.66838] 3.3 17:46:17 10° NNW 17:47:31 22° N 17:47:31 22° N
[s.n.66839] 3.3 17:46:47 10° NNW 17:48:02 22° N 17:48:02 22° N
Landsat 7 4.3 17:44:55 10° S 17:49:31 61° WSW 17:54:09 10° NNW
[s.n.66837] 3.3 17:47:14 10° NNW 17:48:29 22° N 17:48:29 22° N
IRS-P3 4.1 17:44:53 10° SSE 17:50:13 87° WSW 17:55:35 10° NNW
SJ-6F 4.3 17:46:21 10° SSE 17:50:20 85° WSW 17:54:24 10° NNW
[s.n.66836] 3.3 17:47:44 10° NNW 17:48:58 22° N 17:48:58 22° N
Cosmos 2058 Rocket 3.7 17:46:36 10° SSE 17:50:37 34° E 17:50:45 34° E
[s.n.66835] 3.3 17:48:15 10° NNW 17:49:28 22° N 17:49:28 22° N
Cosmos 2297 Rocket 4.1 17:46:24 10° NW 17:51:23 32° WSW 17:56:20 10° SSW
[s.n.66834] 3.3 17:48:44 10° NNW 17:49:57 22° NNW 17:49:57 22° NNW
[s.n.66833] 3.3 17:49:11 10° NNW 17:50:24 22° NNW 17:50:24 22° NNW
[s.n.66832] 3.4 17:49:42 10° NNW 17:50:55 22° NNW 17:50:55 22° NNW
[s.n.66831] 3.4 17:50:08 10° NNW 17:51:21 22° NNW 17:51:21 22° NNW
[s.n.66830] 3.4 17:50:34 10° NNW 17:51:46 22° NNW 17:51:46 22° NNW
[s.n.66828] 3.4 17:51:00 10° NNW 17:52:12 22° NNW 17:52:12 22° NNW
[s.n.66829] 3.4 17:51:32 10° NNW 17:52:44 22° NNW 17:52:44 22° NNW
[s.n.66827] 3.4 17:52:04 10° NNW 17:53:15 22° NNW 17:53:15 22° NNW
[s.n.66826] 3.4 17:52:34 10° NNW 17:53:45 22° NNW 17:53:45 22° NNW
[s.n.66825] 3.4 17:53:01 10° NNW 17:54:11 22° NNW 17:54:11 22° NNW
[s.n.66824] 3.4 17:53:32 10° NNW 17:54:42 22° NNW 17:54:42 22° NNW
[s.n.66823] 3.4 17:54:03 10° NNW 17:55:13 22° NNW 17:55:13 22° NNW
[s.n.66822] 3.5 17:54:33 10° NNW 17:55:41 21° NNW 17:55:41 21° NNW
[s.n.66821] 3.5 17:55:01 10° NNW 17:56:09 21° NNW 17:56:09 21° NNW
Cosmos 1538 Rocket 3.9 17:53:30 10° NNW 17:58:48 84° ENE 18:04:08 10° SSE
Cosmos 1606 Rocket 3.6 17:57:14 10° SSW 18:01:39 79° WNW 18:05:40 13° N
Meteor 1-26 Rocket 4.4 17:59:28 10° SSE 18:04:30 41° E 18:05:35 37° ENE
Cosmos 1503 Rocket 4.5 18:04:58 10° SW 18:10:08 59° WNW 18:13:54 18° NNE
Lacrosse 5 rocket 1.8 18:07:48 10° WNW 18:11:16 39° N 18:11:16 39° N
Cosmos 1553 Rocket 4.2 18:06:09 10° SSE 18:11:57 44° E 18:14:51 27° NE
Cosmos 2219 3.1 18:06:12 10° NNW 18:11:59 81° ENE 18:17:44 10° SSE
GEOS 3 Rocket 3.7 18:09:53 31° NE 18:12:34 79° NW 18:17:56 10° SW
BREEZE-M DEB (TANK) 3.3 18:11:12 10° SW 18:12:04 22° SSW 18:12:04 22° SSW
Resurs 1-3 3.4 18:09:09 10° SSE 18:13:26 74° ENE 18:17:45 10° N
SL-16 R/B 3.8 18:10:46 10° N 18:16:26 38° WNW 18:22:02 10° WSW
Lacrosse 4 Rocket 3.7 18:16:12 10° NW 18:18:07 13° NNW 18:19:18 12° N
Cosmos 1980 Rocket 2.2 18:12:54 10° S 18:18:26 57° ESE 18:19:44 46° ENE
Cosmos 1844 Rocket 3.2 18:13:50 10° NNW 18:18:59 38° NE 18:18:59 38° NE
Cosmos 1354 Rocket 4.3 18:14:31 10° SW 18:19:46 67° WNW 18:22:53 25° NNE
CENTAUR R/B 3.7 18:14:18 10° W 18:20:23 39° NNW 18:24:02 25° NE
Meteor 2-20 4.4 18:16:10 10° S 18:22:21 86° E 18:28:32 10° NNE
USA 281 4.2 18:22:44 26° NNE 18:22:44 26° NNE 18:27:45 10° NNW
NOSS 2-3 (C) 3.8 18:21:26 10° SSW 18:23:55 41° S 18:23:55 41° S
Cosmos 1745 Rocket 4.2 18:19:17 10° N 18:24:48 43° ENE 18:24:48 43° ENE
Spot 4 Rocket 4.0 18:20:09 10° SSE 18:25:16 84° WSW 18:30:26 10° NNW
Cosmos 1726 Rocket 4.1 18:20:59 10° SSW 18:25:35 63° WNW 18:28:51 19° N
Cosmos 2263 Rocket 2.7 18:21:00 10° NW 18:26:36 61° WSW 18:32:11 10° SSE
Cosmos 1898 Rocket 3.6 18:25:38 10° S 18:30:12 52° SE 18:30:12 52° SE
Cosmos 1244 Rocket 4.4 18:24:38 10° N 18:30:58 86° ENE 18:37:11 10° S
Cosmos 2369 4.2 18:26:06 10° S 18:30:42 41° SE 18:30:42 41° SE
Cosmos 2112 Rocket 4.4 18:26:35 10° NNW 18:30:44 44° NNE 18:30:44 44° NNE
Cosmos 1461 3.6 18:28:34 10° WSW 18:32:17 41° NW 18:32:37 40° NNW
Cosmos 44 Rocket 3.8 18:27:40 10° NW 18:32:08 45° NNE 18:32:08 45° NNE
SKYMED 2 3.6 18:36:02 57° N 18:36:51 76° WNW 18:41:11 10° SSW
YAOGAN 1 2.8 18:32:51 10° S 18:37:05 65° WSW 18:41:21 10° NNW
Meteor 1-17 Rocket 4.5 18:31:49 10° N 18:37:26 74° ENE 18:40:27 28° SSE
Cosmos-2242 3.4 18:33:21 10° S 18:36:35 52° S 18:36:35 52° S
USA 238 DEB 3.4 18:33:51 10° SSW 18:39:57 69° SE 18:41:14 56° ENE
USA 238 3.5 18:33:57 10° SSW 18:40:04 68° SE 18:41:19 56° ENE
Cosmos 923 Rocket 3.8 18:35:27 10° NNW 18:40:42 85° ENE 18:41:32 64° SE
Cosmos 2227 Rocket 4.1 18:37:57 10° NW 18:42:46 29° WSW 18:47:33 10° SSW
USA 215 3.3 18:41:10 51° ENE 18:42:47 67° NNE 18:49:16 10° WNW
Cosmos 372 Rocket 3.8 18:37:56 10° SSW 18:43:05 80° ESE 18:43:10 80° E
Cosmos 1943 Rocket 4.3 18:40:51 10° N 18:42:28 13° N 18:42:28 13° N
Meteor 2-20 Rocket 4.3 18:37:50 10° S 18:44:04 89° ESE 18:48:13 21° N
SL-08 R/B 4.4 18:39:16 10° N 18:45:38 89° W 18:51:59 10° S
Cosmos 1937 Rocket 4.4 18:44:21 10° S 18:47:30 36° S 18:47:30 36° S
Cosmos 2369 Rocket 4.4 18:47:47 10° NW 18:50:09 12° N 18:51:32 12° N
BREEZE-M DEB (TANK) 4.4 18:46:42 10° W 18:50:49 82° SSW 18:54:54 40° ESE
Cosmos 1386 Rocket 4.3 18:44:45 10° N 18:50:52 78° ENE 18:57:03 10° SSE
NOSS 2-3 (E) 4.3 18:47:59 10° SW 18:50:28 41° WSW 18:50:28 41° WSW
NOSS 2-3 (D) 4.4 18:48:35 10° SW 18:51:00 40° WSW 18:51:00 40° WSW
Cosmos 1697 Rocket 3.6 18:53:38 10° WSW 18:59:00 45° NW 19:00:59 33° N
Aureole 1 Rocket 3.6 18:55:02 10° SSW 18:59:41 72° WNW 19:00:03 69° NNW
Resurs 01 Rocket 4.0 19:07:10 14° NNW 19:07:10 14° NNW 19:07:44 10° NNW
Cosmos 2278 Rocket 4.3 19:00:12 10° NNW 19:01:48 14° N 19:01:48 14° N
Cosmos 1680 Rocket 4.0 19:07:52 10° NNW 19:12:01 55° NW 19:12:01 55° NW
COSMOS 2455 4.4 19:10:35 10° S 19:12:49 23° S 19:12:49 23° S
NOSS 3-2 (C) 4.3 19:25:23 10° W 19:30:37 40° NNW 19:30:40 40° NNW
Cosmos 1980 Rocket 3.7 19:57:33 10° WSW 20:01:31 32° WNW 20:01:31 32° WNW
Cosmos 1844 Rocket 4.3 19:57:43 10° NW 20:00:39 30° NW 20:00:39 30° NW
CENTAUR R/B 4.0 20:06:05 10° NW 20:11:08 36° NNW 20:11:08 36° NNW
USA 215 4.4 20:28:32 38° WNW 20:28:32 38° WNW 20:32:24 10° WNW
